[[{"header":{"parameterUnit":"m.s-1","parameterCategory":1,"la1":30.2991,"la2":30.254,"lo1":-89.0895,"lo2":-89.0444,"dy":0.0017,"dx":0.0017,"nx":28,"ny":28,"refTime":"2025-03-12T21:00:00:Z","depth":0,"parameterNumber":2,"parameterNumberName":"U-component_of_WINDS"},"data":[0,0,0,0,0,0,0,0,0,0,0,0,0,0,0,0,0,0,0,0,0,0,0,0,0,0,0,0,0,0,0,0,0,0,0,0,0,0,0,0,0,0,0,0,0,0,0,0,0,0,0,0,0,0,0,0,0,0,-1.5653,-1.5653,0,-1.5647,-1.5647,-1.5647,-1.5641,-1.5641,-1.5641,-1.5641,-1.5634,-1.5634,-1.5634,0,0,0,0,0,0,0,0,0,0,0,0,0,-1.5657,-1.5657,-1.5653,-1.5653,-1.5653,-1.5647,-1.5647,-1.5647,-1.5641,-1.5641,-1.5641,-1.5641,-1.5634,-1.5634,-1.5634,0,0,0,0,0,0,0,0,0,0,0,0,0,-1.5654,-1.5657,-1.5653,-1.5649,-1.5649,-1.5647,-1.5647,-1.5647,-1.5641,-1.5641,-1.5641,-1.5641,-1.5634,-1.5634,-1.5634,-1.5635,0,0,-1.5633,-1.5633,0,0,0,0,0,0,0,0,-1.5654,-1.5654,-1.565,-1.5649,-1.5649,-1.5645,-1.5646,-1.5643,-1.5641,-1.5644,-1.5641,-1.5641,-1.5638,-1.5637,-1.5636,-1.5635,-1.5634,-1.5633,-1.5633,-1.5633,-1.5633,0,0,0,0,0,0,0,-1.5654,-1.5654,-1.565,-1.565,-1.5649,-1.5647,-1.5647,-1.5646,-1.5641,-1.5644,-1.5643,-1.5643,-1.5637,-1.5636,-1.5636,-1.5634,-1.5633,-1.5633,-1.5633,-1.5633,-1.5635,-1.5635,0,0,0,0,0,0,-1.5655,-1.5654,-1.5651,-1.565,-1.5651,-1.5647,-1.5647,-1.5646,-1.5641,-1.5641,-1.5643,-1.5643,-1.5637,-1.5636,-1.5636,-1.5637,-1.5633,-1.5633,-1.5633,-1.5634,-1.5635,-1.5635,0,0,0,0,0,0,-1.5655,-1.5655,-1.5651,-1.5652,-1.5651,-1.5647,-1.5647,-1.5646,-1.5645,-1.5641,-1.564,-1.5643,-1.5637,-1.5636,-1.5636,-1.5637,-1.5633,-1.5633,-1.5634,-1.5634,-1.5635,-1.5641,0,0,0,0,0,0,-1.5655,-1.5655,-1.5656,-1.5652,-1.5651,-1.5651,-1.5647,-1.5646,-1.5645,-1.5645,-1.5641,-1.564,-1.5637,-1.5636,-1.5635,-1.5637,-1.5632,-1.5634,-1.5634,-1.5635,-1.564,-1.5641,-1.5642,0,0,0,0,0,-1.5656,-1.5657,-1.5656,-1.5655,-1.5652,-1.5651,-1.5651,-1.5647,-1.5645,-1.5646,-1.5643,-1.564,-1.5637,-1.5636,-1.5635,-1.5637,-1.5634,-1.5634,-1.5635,-1.564,-1.5641,-1.5642,0,0,0,0,0,0,-1.566,-1.5656,-1.5655,-1.5655,-1.5654,-1.565,-1.565,-1.5648,-1.5647,-1.5646,-1.5642,-1.5641,-1.5641,-1.5639,-1.5637,-1.5638,-1.5635,-1.5635,-1.5639,-1.564,-1.5641,-1.5641,-1.5632,0,0,0,0,0,-1.5661,-1.5661,-1.5658,-1.5658,-1.5658,-1.5654,-1.5654,-1.5651,-1.5649,-1.5648,-1.5646,-1.5643,-1.5642,-1.5641,-1.564,-1.564,-1.5639,-1.5641,-1.5642,-1.5642,-1.5642,-1.5643,-1.5644,-1.5636,-1.5636,-1.5636,0,0,-1.5663,-1.5661,-1.5661,-1.5659,-1.5658,-1.5657,-1.5654,-1.5653,-1.5653,-1.5648,-1.5648,-1.5646,-1.5643,-1.5643,-1.5643,-1.5641,-1.5645,-1.5643,-1.5643,-1.5643,-1.5643,-1.5644,-1.5645,-1.5636,-1.5636,-1.5636,0,0,-1.5666,-1.5665,-1.5666,-1.5664,-1.5662,-1.566,-1.5661,-1.5658,-1.5656,-1.5656,-1.5653,-1.5652,-1.565,-1.5648,-1.5647,-1.5652,-1.5648,-1.5651,-1.5654,-1.5655,-1.5656,-1.5656,-1.5658,-1.5658,-1.5651,-1.5651,-1.5651,0,-1.5669,-1.5669,-1.5666,-1.5666,-1.5666,-1.5662,-1.5663,-1.5662,-1.5659,-1.5659,-1.5657,-1.5655,-1.5653,-1.5653,-1.5654,-1.5653,-1.5653,-1.5651,-1.5656,-1.5656,-1.5657,-1.5658,-1.5659,-1.5652,-1.5652,-1.5652,-1.5652,0,-1.5672,-1.5672,-1.5673,-1.5671,-1.567,-1.5671,-1.5668,-1.5668,-1.5666,-1.5664,-1.5664,-1.5662,-1.566,-1.566,-1.5658,-1.566,-1.5659,-1.5657,-1.5654,-1.5658,-1.5659,-1.566,-1.5652,-1.5652,-1.5652,-1.5652,0,0,-1.5677,-1.5675,-1.5675,-1.5675,-1.5673,-1.5672,-1.5673,-1.5672,-1.5672,-1.567,-1.567,-1.5669,-1.5668,-1.5666,-1.5664,-1.5665,-1.5668,-1.5662,-1.5662,-1.5663,-1.5671,-1.5672,-1.5673,-1.5667,-1.5667,-1.5667,-1.5671,0,-1.568,-1.5681,-1.5679,-1.568,-1.568,-1.5677,-1.5678,-1.5677,-1.5675,-1.5675,-1.5673,-1.5672,-1.567,-1.5669,-1.567,-1.5668,-1.567,-1.5668,-1.5667,-1.5667,-1.5667,-1.5673,-1.5675,-1.5678,-1.5671,-1.5671,-1.5672,0,-1.5683,-1.5683,-1.5684,-1.5683,-1.5683,-1.5683,-1.5682,-1.5682,-1.5681,-1.568,-1.5679,-1.5677,-1.5677,-1.5675,-1.5675,-1.5674,-1.5673,-1.5672,-1.5673,-1.5672,-1.5669,-1.5673,-1.568,-1.568,-1.5672,-1.5672,-1.5672,0,-1.5687,-1.5687,-1.5687,-1.5687,-1.5685,-1.5686,-1.5685,-1.5684,-1.5684,-1.5683,-1.5683,-1.5682,-1.5682,-1.5681,-1.5679,-1.5677,-1.5679,-1.5677,-1.5678,-1.5678,-1.5678,-1.5678,-1.5685,-1.5679,-1.5679,-1.5679,-1.5679,0,-1.569,-1.5691,-1.5689,-1.5689,-1.569,-1.5689,-1.569,-1.5689,-1.5688,-1.5688,-1.5686,-1.5686,-1.5683,-1.5683,-1.5681,-1.5682,-1.5682,-1.5681,-1.568,-1.5681,-1.5681,-1.568,-1.5679,-1.5679,-1.5679,-1.5679,-1.5679,0,-1.5694,-1.5693,-1.5693,-1.5692,-1.5692,-1.5693,-1.5692,-1.5692,-1.5691,-1.5691,-1.5691,-1.5689,-1.5689,-1.5687,-1.5686,-1.5685,-1.5687,-1.5686,-1.5687,-1.5687,-1.5688,-1.5688,-1.5694,-1.5695,-1.5689,-1.5689,-1.5689,0,-1.5696,-1.5696,-1.5696,-1.5696,-1.5696,-1.5696,-1.5696,-1.5694,-1.5694,-1.5693,-1.5694,-1.5694,-1.5694,-1.5693,-1.5692,-1.5691,-1.569,-1.5693,-1.569,-1.5691,-1.569,-1.569,-1.569,-1.5693,-1.5693,-1.5693,-1.5693,0,-1.5699,-1.5699,-1.5699,-1.5699,-1.5699,-1.5699,-1.5699,-1.57,-1.5698,-1.5698,-1.5698,-1.5698,-1.5698,-1.5698,-1.5697,-1.5696,-1.5694,-1.5694,-1.5694,-1.5695,-1.5695,-1.5695,-1.5688,-1.5694,-1.5694,-1.5694,-1.5693,-1.5693,-1.5702,-1.5703,-1.5702,-1.5703,-1.5703,-1.5703,-1.5703,-1.5703,-1.5703,-1.5703,-1.5702,-1.5702,-1.5702,-1.5701,-1.57,-1.5701,-1.5699,-1.57,-1.57,-1.57,-1.57,-1.5696,-1.5701,-1.5701,-1.5701,-1.5701,-1.57,0,-1.5705,-1.5705,-1.5706,-1.5706,-1.5706,-1.5705,-1.5705,-1.5706,-1.5706,-1.5706,-1.5706,-1.5707,-1.5707,-1.5706,-1.5705,-1.5706,-1.5705,-1.5706,-1.5706,-1.5705,-1.5701,-1.5701,-1.5707,-1.5707,-1.5707,-1.5707,-1.5707,-1.5707,-1.5707,-1.5708,-1.5708,-1.5709,-1.5709,-1.571,-1.571,-1.571,-1.571,-1.5711,-1.5711,-1.571,-1.571,-1.571,-1.571,-1.571,-1.571,-1.5711,-1.571,-1.5706,-1.5706,-1.5705,-1.5705,-1.5711,-1.5711,-1.5714,-1.5714,-1.5714]},{"header":{"parameterUnit":"m.s-1","parameterCategory":1,"la1":30.2991,"la2":30.254,"lo1":-89.0895,"lo2":-89.0444,"dy":0.0017,"dx":0.0017,"nx":28,"ny":28,"refTime":"2025-03-12T21:00:00:Z","depth":0,"parameterNumber":3,"parameterNumberName":"V-component_of_WINDS"},"data":[0,0,0,0,0,0,0,0,0,0,0,0,0,0,0,0,0,0,0,0,0,0,0,0,0,0,0,0,0,0,0,0,0,0,0,0,0,0,0,0,0,0,0,0,0,0,0,0,0,0,0,0,0,0,0,0,0,0,3.0433,3.0434,0,3.0484,3.0485,3.0485,3.0484,3.0483,3.0482,3.0482,3.0529,3.0531,3.0532,0,0,0,0,0,0,0,0,0,0,0,0,0,3.0331,3.0333,3.0433,3.0434,3.0435,3.0484,3.0485,3.0485,3.0484,3.0483,3.0482,3.0481,3.0528,3.053,3.0533,0,0,0,0,0,0,0,0,0,0,0,0,0,3.0378,3.0334,3.0433,3.044,3.0441,3.0484,3.0485,3.0486,3.0484,3.0483,3.0482,3.0481,3.0527,3.053,3.0533,3.0571,0,0,3.0542,3.0543,0,0,0,0,0,0,0,0,3.0375,3.0382,3.0438,3.044,3.0441,3.0477,3.0466,3.0514,3.0484,3.0467,3.0482,3.048,3.0512,3.0516,3.0528,3.0573,3.0575,3.0542,3.0544,3.0545,3.0546,0,0,0,0,0,0,0,3.0372,3.038,3.0453,3.0439,3.0441,3.0439,3.0445,3.0475,3.0495,3.0469,3.0469,3.0475,3.0512,3.0525,3.0529,3.0576,3.0542,3.0544,3.0546,3.0547,3.0656,3.0657,0,0,0,0,0,0,3.0368,3.0377,3.0452,3.0455,3.0405,3.0442,3.0448,3.0466,3.0494,3.0498,3.0476,3.0475,3.052,3.0525,3.053,3.0577,3.0545,3.0547,3.0549,3.0655,3.0656,3.0658,0,0,0,0,0,0,3.0366,3.0375,3.045,3.0416,3.0425,3.0445,3.0465,3.0468,3.048,3.05,3.0503,3.0485,3.052,3.0526,3.0561,3.0579,3.0549,3.0551,3.0654,3.0655,3.0657,3.0671,0,0,0,0,0,0,3.0363,3.0374,3.039,3.0416,3.0427,3.0481,3.0466,3.0469,3.0486,3.0485,3.0509,3.0513,3.052,3.0557,3.0564,3.0582,3.0554,3.0652,3.0654,3.0657,3.0669,3.0673,3.0677,0,0,0,0,0,3.0359,3.039,3.039,3.0399,3.0447,3.0482,3.0488,3.0497,3.0487,3.0502,3.0515,3.0512,3.0576,3.0561,3.0569,3.0588,3.0651,3.0654,3.0656,3.0668,3.0673,3.0677,0,0,0,0,0,0,3.0363,3.0394,3.0394,3.0435,3.0456,3.0482,3.0501,3.0502,3.0525,3.0523,3.0531,3.0537,3.0572,3.0583,3.0566,3.0627,3.0612,3.0616,3.0618,3.0623,3.0626,3.0623,3.0556,0,0,0,0,0,3.0369,3.0396,3.0421,3.0454,3.0465,3.0482,3.0497,3.0502,3.0524,3.0532,3.0548,3.0567,3.0592,3.0608,3.0632,3.0671,3.0676,3.0688,3.0692,3.0695,3.0698,3.072,3.0726,3.0667,3.0667,3.0666,0,0,3.038,3.0401,3.0417,3.0456,3.0473,3.05,3.0489,3.0517,3.0537,3.0536,3.0571,3.0583,3.0605,3.0643,3.066,3.0654,3.0716,3.0698,3.0701,3.0702,3.0724,3.0729,3.0734,3.0668,3.0668,3.0668,0,0,3.0415,3.0434,3.0464,3.0482,3.0509,3.052,3.0527,3.0553,3.0562,3.0597,3.0597,3.062,3.0662,3.0679,3.0693,3.0736,3.0733,3.0743,3.0762,3.0783,3.0788,3.0792,3.0808,3.0813,3.0747,3.0747,3.0747,0,3.0426,3.0468,3.0479,3.0509,3.0526,3.0528,3.0558,3.0575,3.0607,3.0618,3.061,3.0665,3.068,3.0722,3.0732,3.0744,3.0752,3.074,3.0787,3.0791,3.0795,3.081,3.0816,3.0748,3.0747,3.0747,3.0747,0,3.048,3.0509,3.053,3.0564,3.0583,3.0612,3.0627,3.0645,3.0649,3.066,3.0696,3.0715,3.0743,3.0754,3.0757,3.0796,3.0791,3.0785,3.0771,3.0802,3.0816,3.0821,3.0749,3.0749,3.0748,3.0748,0,0,3.0517,3.0558,3.0565,3.0581,3.0612,3.0634,3.0663,3.0693,3.0708,3.073,3.0755,3.0792,3.0787,3.0803,3.0808,3.0827,3.086,3.0818,3.0819,3.0825,3.0904,3.0908,3.0915,3.0859,3.086,3.0861,3.0902,0,3.0555,3.061,3.0621,3.0668,3.0695,3.0698,3.0724,3.0745,3.0757,3.078,3.0792,3.0819,3.081,3.082,3.0839,3.0852,3.0876,3.0849,3.0881,3.0882,3.0875,3.0922,3.0926,3.0964,3.0908,3.0909,3.0909,0,3.0607,3.0633,3.0683,3.0711,3.0723,3.0746,3.0774,3.0797,3.0821,3.0828,3.0847,3.085,3.088,3.0865,3.0906,3.0888,3.0902,3.091,3.0912,3.0914,3.0897,3.0926,3.0977,3.0982,3.0918,3.0917,3.0917,0,3.0629,3.0676,3.0713,3.0726,3.076,3.0776,3.079,3.0813,3.083,3.0855,3.0866,3.0893,3.0907,3.0927,3.0938,3.0926,3.0978,3.0964,3.0984,3.0984,3.0994,3.0993,3.1048,3.1004,3.1004,3.1004,3.1003,0,3.067,3.07,3.0724,3.0746,3.078,3.0793,3.0825,3.0839,3.086,3.0884,3.0888,3.091,3.0923,3.0947,3.0955,3.0988,3.0994,3.1,3.1002,3.1,3.0999,3.1009,3.1006,3.1005,3.1005,3.1004,3.1004,0,3.07,3.0717,3.0757,3.0786,3.0795,3.0818,3.0843,3.0864,3.0876,3.0907,3.0915,3.0934,3.0962,3.0975,3.1009,3.1015,3.1053,3.1052,3.1045,3.1046,3.1065,3.1063,3.1127,3.1136,3.1087,3.1087,3.1088,0,3.0725,3.0749,3.0782,3.08,3.0815,3.0843,3.0861,3.0875,3.0893,3.0923,3.094,3.097,3.0994,3.1039,3.1055,3.1081,3.1081,3.1102,3.1085,3.1083,3.1082,3.108,3.1082,3.1105,3.1105,3.1106,3.1106,0,3.0768,3.0776,3.0803,3.0833,3.0856,3.088,3.0903,3.0917,3.0934,3.0954,3.0985,3.1004,3.104,3.1069,3.1097,3.111,3.1111,3.1112,3.1118,3.1115,3.111,3.1113,3.1053,3.111,3.1109,3.1109,3.1109,3.1109,3.0796,3.0818,3.0845,3.0875,3.0895,3.0917,3.0939,3.0955,3.0981,3.1013,3.1019,3.1052,3.1075,3.1113,3.1128,3.1152,3.1147,3.1156,3.1158,3.116,3.1161,3.1107,3.1157,3.1157,3.1157,3.1157,3.1157,0,3.0839,3.0857,3.0885,3.0919,3.0943,3.0944,3.097,3.0989,3.1018,3.1041,3.1065,3.11,3.1129,3.1148,3.1176,3.1192,3.1193,3.1199,3.1197,3.12,3.1164,3.1156,3.1198,3.1198,3.1198,3.1198,3.1197,3.1197,3.0864,3.0901,3.0912,3.0959,3.0976,3.1009,3.1024,3.1045,3.1063,3.1103,3.1127,3.114,3.1161,3.1191,3.1217,3.1221,3.1231,3.1238,3.1242,3.1207,3.1203,3.1199,3.1191,3.124,3.124,3.1276,3.1277,3.1277]}]]